If you wish to contribute or participate in the discussions about articles you are invited to join SKYbrary as a registered user

 Actions

Strasbourg Airport

From SKYbrary Wiki

LFST
Airport
ICAO: LFST – IATA: SXB
Summary
Name Strasbourg Airport
Region Europe
Territory France FR.gif
Location , Alsace
Serving Strasbourg
Elevation 153.924 m
505 ft
505 ft153.924 m
Type medium airport
Coordinates 48° 32' 17.95" N, 7° 37' 41.64" E
Runways
Designator Length Width Surface ROPS
5/23 2400 m7,874.016 ft
45 m147.638 ft
ASP yes/yes


METAR
Observation LFST 231600Z AUTO 26004KT 220V280 6000 OVC011 14/12 Q1012 BECMG OVC008
Station Strasbourg
Date/Time 23 October 2019 16:00:00
Wind direction 260°
Wind speed 04 kts
Lowest cloud amount overcast
Temperature 14°C
Dew point 12°C
Humidity 87%
QNH 1012 hPa
Weather condition n/a